Champaign, IL

11:47 AM CDT on July 17, 2019 (GMT -0500)
Univ Of Illinois-Willard

Weather History for KCMI - May, 2019

Change the Weather History Date:

Saturday, May 25, 2019

  Actual Average Record
Temperature  
Mean Temperature 78 °F 66 °F  
Max Temperature 86 °F 78 °F 92 °F (2018)
Min Temperature 70 °F 54 °F 44 °F (2001)
Degree Days  
Heating Degree Days 0 3  
Month to date heating degree days 136 129  
Since 1 July heating degree days 5899 5793  
Cooling Degree Days 13 4  
Month to date cooling degree days 65 56  
Year to date cooling degree days 68 67  
Growing Degree Days 27 (Base 50)    
Moisture  
Dew Point 66 °F    
Average Humidity 68    
Maximum Humidity 84    
Minimum Humidity 51    
Precipitation  
Precipitation 0.00 in 0.14 in 1.47 in (2011)
Month to date precipitation 3.89 3.73  
Year to date precipitation 16.03 14.34  
Sea Level Pressure  
Sea Level Pressure 29.97 in    
Wind  
Wind Speed 14 mph (SW)    
Max Wind Speed 29 mph    
Max Gust Speed 40 mph    
Visibility 10 miles    
Events      
T = Trace of Precipitation, MM = Missing Value Source: NWS Daily Summary

Daily Weather History Graph

Daily Weather History Graph

Search for Another Location

Airport or City:

Astronomy

May. 25, 2019 Rise Set
Actual Time 5:30 AM CDT 8:10 PM CDT
Civil Twilight 4:58 AM CDT 8:42 PM CDT
Nautical Twilight 4:19 AM CDT 9:21 PM CDT
Astronomical Twilight 3:34 AM CDT 10:06 PM CDT
Moon 1:11 AM CDT (5/25) 11:29 AM CDT (5/25)
Length of Visible Light 15h 43m
Length of Day
14h 40m
Waning Gibbous, 59% of the Moon is Illuminated
May 25
Waning Gibbous
May 26
Last Quarter
Jun 3
New
Jun 10
First Quarter
Jun 17
Full

Hourly Weather History & Observations

Time (CDT) Temp. Heat Index Dew Point Humidity Pressure Visibility Wind Dir Wind Speed Gust Speed Precip Events Conditions
12:53 AM 73.0 °F - 64.9 °F 76% 29.96 in 10.0 mi SSW 13.8 mph - N/A   Clear
1:53 AM 73.0 °F - 64.9 °F 76% 29.95 in 10.0 mi SSW 15.0 mph - N/A   Clear
2:53 AM 73.0 °F - 66.0 °F 79% 29.92 in 10.0 mi SSW 15.0 mph - N/A   Clear
3:53 AM 73.0 °F - 64.9 °F 76% 29.92 in 10.0 mi SSW 13.8 mph - N/A   Clear
4:53 AM 71.1 °F - 64.9 °F 81% 29.92 in 10.0 mi SSW 12.7 mph - N/A   Clear
5:53 AM 70.0 °F - 64.9 °F 84% 29.94 in 10.0 mi South 11.5 mph - N/A   Clear
6:53 AM 73.0 °F - 64.9 °F 76% 29.95 in 10.0 mi SSW 15.0 mph - N/A   Clear
7:53 AM 75.0 °F - 66.9 °F 76% 29.96 in 10.0 mi SSW 17.3 mph 24.2 mph N/A   Partly Cloudy
8:53 AM 77.0 °F - 66.9 °F 71% 29.96 in 10.0 mi SSW 19.6 mph - N/A   Scattered Clouds
9:53 AM 79.0 °F - 66.9 °F 66% 29.98 in 10.0 mi WSW 17.3 mph 27.6 mph N/A   Mostly Cloudy
10:53 AM 75.9 °F - 66.9 °F 74% 30.01 in 10.0 mi West 9.2 mph - N/A   Overcast
11:53 AM 78.1 °F - 66.0 °F 66% 30.01 in 10.0 mi SW 12.7 mph 23.0 mph N/A   Partly Cloudy
12:53 PM 81.0 °F 83.0 °F 66.0 °F 60% 30.00 in 10.0 mi SW 18.4 mph 32.2 mph N/A   Scattered Clouds
1:53 PM 84.0 °F 86.3 °F 66.0 °F 55% 29.98 in 10.0 mi WSW 18.4 mph 27.6 mph N/A   Clear
2:53 PM 84.9 °F 86.1 °F 64.0 °F 49% 29.98 in 10.0 mi WSW 21.9 mph 34.5 mph N/A   Scattered Clouds
3:53 PM 84.0 °F 85.4 °F 64.0 °F 51% 29.98 in 10.0 mi WSW 19.6 mph 39.1 mph N/A   Partly Cloudy
4:53 PM 84.9 °F 86.1 °F 64.0 °F 49% 29.98 in 10.0 mi WSW 17.3 mph 28.8 mph N/A   Scattered Clouds
5:53 PM 84.0 °F 85.8 °F 64.9 °F 53% 29.98 in 10.0 mi WSW 17.3 mph 26.5 mph N/A   Scattered Clouds
6:53 PM 82.9 °F 85.0 °F 66.0 °F 56% 29.99 in 10.0 mi WSW 15.0 mph - N/A   Scattered Clouds
7:53 PM 78.1 °F - 66.0 °F 66% 29.98 in 10.0 mi WSW 5.8 mph - N/A   Partly Cloudy
8:53 PM 75.9 °F - 66.9 °F 74% 29.98 in 10.0 mi SW 4.6 mph - N/A   Mostly Cloudy
9:53 PM 73.0 °F - 66.9 °F 81% 29.99 in 10.0 mi South 8.1 mph - N/A   Clear
10:53 PM 73.9 °F - 66.9 °F 79% 29.99 in 10.0 mi South 6.9 mph - N/A   Overcast
11:53 PM 73.9 °F - 68.0 °F 82% 29.99 in 10.0 mi South 5.8 mph - N/A   Overcast